Home   Weather   Wright   Past weeks

Flag for USA Past Weather in Wright, Florida, USA — Yesterday and Last 2 Weeks

78 °F


Feels Like: 78 °F
Forecast: 59 / 77 °F
Wind: 17 mph from North

Location: Hurlburt Field

Current Time: Oct 21, 2016 at 3:05:23 PM

Latest Report: Oct 21, 2016 at 1:58 PM

Visibility: 10 mi

Pressure: 29.92 "Hg

Humidity: 28%

Dew Point: 42 °F

Location of WrightLocation

Past Weather in Wright — Graph


Wright Temperature Yesterday

Maximum temperature yesterday: 85 °F (at 11:58 AM)
Minimum temperature yesterday: 63 °F (at 4:58 AM)
Average temperature yesterday: 74 °F

High & Low Weather Summary for the Past Weeks

High90 °F (Oct 7, 1:58 PM)100% (Oct 14, 3:58 AM)30.40 "Hg (Oct 14, 3:58 AM)
Low57 °F (Oct 11, 6:58 AM)28% (Oct 21, 1:58 PM)29.79 "Hg (Oct 7, 4:58 PM)
Average73 °F68%30.05 "Hg
* Reported Oct 6 1:03 PM — Oct 21 1:58 PM, Wright, Weather by CustomWeather, © 2016

Note: Actual official high and low records may vary slightly from our data, if they occured in-between our weather recording intervals... More about our weather records


Wright Weather History for the Previous 24 Hours

Scroll right to see more
Time TempWeatherWind HumidityBarometerVisibility
1:58 PM
Fri, Oct 21
78 °FSunny.17 mph28%29.92 "Hg10 mi
12:58 PM77 °FSunny.22 mph30%29.94 "Hg10 mi
11:58 AM75 °FSunny.14 mph36%29.96 "Hg10 mi
10:58 AM72 °FPassing clouds.21 mph40%29.97 "Hg10 mi
9:58 AM69 °FSunny.17 mph49%29.98 "Hg10 mi
8:58 AM67 °FPassing clouds.20 mph59%29.97 "Hg10 mi
7:58 AM65 °FSunny.12 mph66%29.96 "Hg10 mi
6:58 AM66 °FPartly sunny.16 mph70%29.94 "Hg10 mi
6:03 AM70 °FPartly sunny.13 mph78%29.92 "Hg10 mi
4:58 AM70 °FPartly cloudy.8 mph86%29.91 "Hg10 mi
3:58 AM70 °FPassing clouds.10 mph88%29.91 "Hg10 mi
2:58 AM72 °FClear.8 mph83%29.90 "Hg10 mi
1:58 AM72 °FClear.5 mph88%29.91 "Hg10 mi
12:58 AM72 °FClear.3 mph89%29.92 "Hg10 mi
11:58 PM
Thu, Oct 20
72 °FClear.1 mph88%29.93 "Hg10 mi
10:58 PM74 °FPassing clouds.No wind83%29.94 "Hg10 mi
9:58 PM75 °FPassing clouds.No wind81%29.94 "Hg10 mi
8:58 PM76 °FPassing clouds.3 mph79%29.94 "Hg10 mi
7:58 PM76 °FClear.3 mph73%29.94 "Hg10 mi
6:58 PM78 °FPassing clouds.5 mph68%29.93 "Hg10 mi
5:58 PM79 °FPassing clouds.5 mph63%29.93 "Hg10 mi
4:58 PM81 °FScattered clouds.8 mph58%29.93 "Hg10 mi
3:58 PM82 °FPassing clouds.9 mph54%29.93 "Hg10 mi
Weather by CustomWeather, © 2016

See weather overviewHow to use our weather pages